Wind_Speed
17 17 17 17 17 17 18 18 18 18 19 19 19 19 20 20 20 20 20 20 20 21 21 21 21 21 21 21 21 21 22 21 21 21 21 21 21 21
17 18 18 18 17 18 18 18 18 18 18 19 19 20 20 20 20 21 21 20 21 21 21 21 20 20 21 21 21 21 21 21 21 21 21 22 22 22
18 18 19 19 18 18 18 18 18 18 18 19 19 19 20 20 21 22 22 22 21 22 22 21 21 21 21 21 21 22 21 22 22 22 22 23 23 22
19 19 19 19 18 18 18 18 18 18 19 19 19 20 20 21 21 21 22 22 22 22 22 22 21 22 22 22 21 21 22 21 22 22 23 23 23 23
19 19 19 19 19 19 19 19 19 19 20 20 20 21 21 21 21 21 21 22 22 22 22 22 22 22 22 21 21 21 22 22 22 23 23 23 24 23
20 20 19 19 20 20 20 20 20 20 20 20 21 21 21 21 22 21 22 22 22 22 23 22 22 22 22 22 22 23 23 23 23 23 24 24 24 24
21 21 21 20 21 21 21 21 21 21 21 21 22 22 22 23 23 23 23 23 23 23 23 23 23 23 23 23 23 23 24 24 24 24 24 25 24 25
22 23 23 22 22 22 22 22 22 22 22 23 23 24 24 23 23 23 24 24 24 24 25 25 25 24 24 24 24 24 24 24 25 25 25 25 25 26
24 24 24 24 23 23 23 23 23 23 24 24 25 25 24 24 23 23 24 24 24 24 25 24 24 24 24 24 24 24 24 25 26 25 25 25 25 26
26 26 25 25 24 24 24 24 24 24 25 25 25 25 25 24 24 24 24 24 24 24 24 24 24 24 24 24 24 24 25 25 25 26 26 25 25 26
27 27 27 26 25 25 25 25 25 26 26 26 26 26 25 25 25 25 25 25 25 26 26 26 25 25 25 24 25 25 25 25 24 25 26 27 27 27
29 28 28 28 27 27 27 26 26 26 27 27 27 26 26 25 26 26 26 26 26 26 26 26 26 26 26 26 26 26 25 25 24 25 25 25 26 26
31 30 30 29 29 28 28 28 28 28 28 28 28 28 28 28 28 27 27 27 27 27 27 26 27 27 27 27 26 26 26 26 25 25 25 25 25 25
32 31 31 30 30 30 30 29 29 29 29 29 29 29 29 28 28 28 28 28 27 27 27 28 28 28 28 27 27 26 26 26 26 26 27 26 26 26
33 32 32 31 31 31 31 31 31 31 31 30 30 30 29 29 29 29 29 29 28 28 28 28 28 28 28 28 27 27 27 27 27 28 28 27 27 27
33 33 33 32 32 32 32 32 32 31 31 31 31 31 30 30 30 30 29 29 28 29 29 29 29 29 29 29 29 29 28 28 29 29 29 29 28 27
34 33 33 32 32 32 32 32 32 31 31 31 31 30 30 30 30 30 30 29 29 29 29 30 30 30 30 30 30 29 29 29 29 29 30 30 30 29
34 33 32 32 32 32 31 31 32 31 31 31 30 30 30 31 31 31 30 30 29 29 29 30 31 31 30 30 31 31 30 30 30 30 30 30 30 30
34 33 32 32 32 32 31 31 31 31 31 30 30 29 29 30 30 30 30 30 30 31 31 30 30 30 31 30 30 31 31 31 31 31 31 31 30 30
33 32 32 32 32 32 32 31 31 30 30 30 29 29 30 30 30 30 30 30 31 31 31 31 30 31 31 31 31 31 31 31 31 31 32 31 31 31
32 32 32 33 33 32 31 31 31 30 30 30 30 30 31 31 31 31 31 30 31 31 31 31 31 31 31 31 31 31 32 32 32 32 32 32 32 32
32 32 32 33 32 32 32 31 31 31 31 31 31 32 32 32 31 31 31 31 31 31 31 31 32 32 31 31 31 31 32 32 33 33 33 34 33 32
32 32 32 33 33 32 32 32 32 33 33 33 33 33 33 32 31 31 31 31 31 31 31 31 31 31 31 31 32 32 32 32 33 33 33 33 33 33
Wind_Direction
286 287 288 288 286 284 284 283 282 280 281 280 279 279 279 278 279 279 280 281 280 278 277 276 275 274 273 274 273 272 270 269 269 270 269 270 272 272
287 287 287 287 287 285 285 284 283 282 282 283 281 279 278 278 279 279 279 280 279 278 277 275 274 274 274 276 275 274 271 270 270 271 270 270 271 271
287 289 288 287 286 285 285 286 285 283 283 283 284 282 279 280 280 279 279 279 278 278 278 276 275 274 276 276 277 275 272 271 271 271 270 270 269 269
286 287 288 287 285 286 286 286 286 286 285 284 284 284 282 281 281 280 280 280 279 278 278 278 276 274 275 276 277 275 273 273 273 272 271 270 268 268
285 286 286 285 284 284 285 286 286 286 286 285 286 284 283 282 281 280 280 280 278 278 278 278 277 276 275 276 276 275 273 273 273 272 272 270 269 269
283 284 284 284 283 284 284 283 284 284 284 284 286 285 282 281 281 280 280 280 279 278 279 279 277 277 276 275 275 274 273 273 274 274 272 270 270 268
281 282 283 283 283 283 283 283 283 283 283 284 286 287 285 281 280 280 280 280 280 279 278 279 279 278 278 277 276 274 273 272 272 273 273 270 269 267
281 281 281 281 281 281 282 283 283 283 284 285 286 286 286 284 282 281 281 280 280 279 278 277 279 279 278 277 277 276 274 273 272 273 274 272 269 268
279 280 281 281 280 279 280 281 282 282 282 284 285 284 285 283 282 280 281 282 282 280 279 279 279 280 278 277 278 277 275 275 273 272 272 272 270 268
278 279 279 280 279 278 279 279 280 281 282 282 283 283 282 281 279 280 281 281 282 281 281 281 279 279 278 278 277 277 276 276 274 271 270 271 271 269
276 276 276 277 278 278 278 279 279 280 281 282 283 282 281 281 280 281 281 281 280 280 280 281 280 279 277 278 277 277 277 276 276 274 272 272 271 270
274 275 275 275 275 278 278 280 280 280 281 282 281 280 280 281 281 281 281 281 280 278 278 279 279 277 277 277 278 276 275 275 276 276 274 274 272 271
273 274 275 275 274 276 279 280 280 279 280 280 280 279 279 280 280 280 281 281 279 278 277 278 278 278 278 278 277 276 275 275 276 277 276 275 273 271
273 273 273 274 274 276 278 279 279 280 280 279 279 278 278 279 279 280 280 280 279 278 277 277 277 278 278 278 278 277 276 275 277 278 277 277 275 274
272 273 273 273 274 275 277 279 279 278 279 279 279 278 277 277 279 279 280 278 277 277 277 277 277 278 277 277 278 277 276 277 278 277 278 279 278 275
271 272 272 273 274 275 276 277 277 277 278 278 277 276 277 278 278 278 277 277 277 276 275 275 276 277 277 277 277 276 276 278 278 276 276 278 278 277
270 271 271 272 273 274 275 276 277 278 277 276 275 274 274 276 278 277 276 277 276 275 275 275 276 277 277 277 276 274 274 277 276 276 276 277 278 278
268 269 270 271 272 273 273 274 275 276 276 276 275 275 275 275 275 275 275 276 276 276 276 276 276 275 276 276 275 274 274 276 276 277 276 277 277 277
267 268 269 271 272 272 273 274 274 274 275 275 275 276 276 276 276 276 276 275 276 277 277 277 277 277 276 276 275 276 276 275 276 276 276 276 276 277
268 269 270 270 271 272 273 273 273 274 275 276 276 276 277 277 276 276 277 276 276 276 276 276 276 277 277 277 277 276 276 276 276 276 276 277 277 277
268 269 270 270 270 271 271 272 272 273 274 276 276 276 277 277 277 277 277 278 277 276 276 275 275 275 276 277 278 277 277 277 277 277 277 278 278 278
267 267 268 270 270 269 270 270 271 272 273 274 276 277 276 276 275 275 277 279 278 277 277 276 275 275 276 276 277 277 277 278 278 278 279 280 280 279
265 265 266 268 269 269 270 270 271 271 272 273 275 275 275 275 275 276 277 278 278 277 277 276 275 276 276 276 277 277 278 279 279 279 280 279 277 277
Height
5810 5808 5807 5805 5804 5802 5801 5800 5799 5798 5797 5796 5795 5794 5794 5793 5792 5792 5791 5790 5789 5788 5787 5786 5786 5785 5785 5784 5784 5783 5783 5784 5784 5784 5784 5784 5784 5784
5805 5803 5802 5800 5799 5797 5796 5795 5793 5793 5792 5791 5790 5789 5788 5787 5787 5786 5785 5784 5783 5782 5781 5780 5780 5780 5779 5778 5778 5778 5778 5778 5778 5778 5778 5778 5778 5778
5799 5798 5797 5795 5793 5792 5791 5789 5788 5787 5786 5785 5784 5783 5782 5781 5781 5780 5779 5778 5777 5776 5775 5774 5774 5774 5773 5772 5772 5772 5772 5772 5772 5772 5772 5772 5772 5772
5794 5792 5791 5789 5788 5787 5785 5784 5783 5782 5781 5779 5778 5777 5776 5775 5774 5773 5772 5772 5771 5770 5769 5768 5768 5768 5767 5767 5766 5766 5765 5765 5765 5765 5766 5766 5766 5766
5789 5787 5785 5784 5783 5782 5780 5779 5777 5776 5775 5774 5772 5771 5770 5769 5768 5767 5766 5765 5764 5764 5763 5762 5762 5761 5761 5761 5760 5759 5759 5759 5759 5759 5759 5759 5759 5759
5783 5781 5780 5779 5778 5776 5775 5773 5772 5770 5769 5768 5766 5765 5764 5763 5762 5761 5760 5759 5758 5758 5757 5756 5755 5755 5754 5754 5754 5753 5753 5752 5752 5752 5752 5752 5752 5752
5777 5776 5774 5773 5772 5770 5769 5768 5766 5765 5763 5762 5760 5759 5758 5757 5755 5755 5754 5753 5752 5751 5750 5750 5749 5748 5748 5747 5747 5746 5746 5745 5745 5745 5745 5745 5745 5745
5771 5770 5768 5767 5765 5764 5763 5762 5760 5759 5758 5756 5754 5753 5751 5750 5749 5748 5747 5746 5746 5745 5744 5743 5742 5742 5741 5740 5740 5739 5739 5738 5738 5738 5738 5737 5737 5737
5765 5763 5762 5760 5759 5757 5756 5755 5754 5752 5751 5750 5748 5746 5744 5743 5742 5741 5740 5739 5738 5737 5737 5736 5735 5735 5734 5734 5733 5733 5732 5731 5730 5730 5730 5730 5729 5729
5758 5756 5755 5754 5752 5751 5749 5748 5747 5745 5744 5743 5741 5740 5738 5736 5735 5734 5733 5732 5731 5731 5730 5729 5729 5728 5727 5727 5726 5725 5724 5724 5723 5722 5722 5722 5722 5722
5750 5749 5747 5746 5745 5744 5742 5741 5739 5738 5737 5735 5734 5732 5731 5729 5728 5727 5727 5726 5725 5724 5723 5722 5721 5721 5720 5719 5718 5718 5717 5716 5715 5715 5714 5714 5714 5714
5742 5741 5740 5739 5737 5736 5734 5733 5732 5730 5729 5727 5726 5725 5723 5722 5721 5720 5719 5718 5717 5716 5715 5715 5714 5713 5712 5712 5710 5709 5709 5708 5708 5707 5706 5706 5706 5705
5733 5732 5731 5730 5730 5728 5727 5725 5724 5722 5720 5719 5718 5717 5716 5715 5714 5712 5711 5710 5709 5708 5707 5706 5706 5705 5704 5703 5702 5701 5701 5700 5700 5699 5698 5698 5697 5697
5724 5723 5723 5722 5721 5720 5718 5717 5715 5714 5712 5711 5710 5709 5708 5707 5705 5704 5702 5701 5700 5700 5699 5698 5697 5696 5695 5695 5694 5693 5693 5692 5692 5691 5690 5690 5689 5689
5714 5714 5713 5712 5711 5710 5709 5708 5706 5705 5704 5703 5701 5700 5699 5698 5697 5695 5694 5693 5692 5691 5690 5689 5688 5688 5687 5687 5686 5685 5684 5684 5683 5682 5682 5681 5681 5680
5703 5703 5703 5702 5701 5700 5699 5698 5697 5696 5694 5693 5692 5691 5690 5689 5688 5687 5685 5684 5683 5682 5681 5680 5680 5679 5679 5678 5677 5677 5676 5675 5675 5674 5673 5672 5672 5671
5693 5692 5692 5692 5691 5690 5689 5688 5687 5686 5685 5684 5683 5682 5681 5680 5679 5678 5677 5675 5674 5674 5673 5672 5671 5670 5669 5669 5668 5667 5667 5666 5666 5665 5664 5663 5662 5661
5682 5682 5682 5682 5681 5680 5679 5678 5677 5676 5675 5674 5673 5672 5671 5670 5669 5668 5667 5666 5665 5664 5664 5663 5662 5661 5660 5660 5659 5658 5657 5657 5656 5655 5655 5654 5653 5652
5672 5672 5672 5671 5671 5670 5670 5669 5668 5667 5666 5665 5664 5663 5662 5661 5660 5659 5658 5657 5656 5655 5654 5653 5652 5651 5651 5651 5650 5649 5648 5647 5646 5646 5645 5644 5644 5642
5662 5662 5661 5661 5661 5660 5660 5659 5658 5657 5656 5655 5654 5654 5653 5652 5651 5650 5649 5647 5646 5645 5644 5644 5643 5642 5641 5641 5640 5639 5638 5637 5636 5636 5636 5635 5634 5633
5652 5651 5651 5651 5650 5650 5650 5649 5648 5648 5647 5646 5645 5644 5643 5642 5641 5640 5639 5638 5637 5636 5635 5634 5633 5632 5631 5631 5631 5630 5629 5627 5626 5625 5625 5624 5623 5622
5641 5641 5641 5640 5640 5640 5639 5639 5638 5638 5638 5637 5636 5635 5634 5633 5632 5630 5630 5629 5627 5626 5625 5624 5623 5623 5622 5621 5621 5620 5619 5617 5616 5615 5614 5613 5611 5611
5631 5630 5630 5630 5630 5630 5629 5629 5628 5628 5627 5626 5626 5625 5624 5623 5622 5621 5620 5619 5618 5616 5616 5615 5614 5613 5612 5611 5610 5609 5608 5607 5606 5605 5604 5602 5601 5600